User: anonymous   Login
Location: Mentone
(34.5413°N, 85.5351°W)
Time: 03:25:19
(UTC-05:00)
Language:

SL-8 R/B - Orbit

View from above orbital plane
View from above orbital plane
View from above satellite
View from above satellite

Ground track
Ground track

The orbit data is extracted from the following two-line orbital elements,

1 33066U 08031G   16273.19153895  .00000011  00000-0  34563-4 0  9997
2 33066  48.4432 251.1395 0007093  92.9433   1.6741 14.69472396444372
Epoch (UTC): 29 September 2016 04:35:48
Eccentricity: 0.0007093
inclination: 48.4432°
perigee height: 658 km
apogee height: 668 km
right ascension of ascending node: 251.1395°
argument of perigee: 92.9433°
revolutions per day: 14.69472396
mean anomaly at epoch: 1.6741°
orbit number at epoch: 44437

The dashed part of the orbit path shows where the satellite is in the earth's shadow,  

DLR